EW7038 Weather Reports


time (UTC)temp
F
wind
direction
speed
knots
gust
knots
rain 1hr
in
rain 24hr
in
rain mn
in
humidity
%
barometer
mb
20260505061803 66 275 9.6 18.2 0.00 0.00 0.00 56 1008.7
20260505061303 66 272 9.6 17.4 0.00 0.00 0.00 57 1008.6
20260505060303 66 261 12.2 22.6 0.00 0.00 0.00 56 1008.6
20260505055803 66 272 8.7 21.7 0.00 0.00 0.00 56 1008.7
20260505055304 67 268 9.6 20.0 0.00 0.00 0.00 55 1008.7
20260505053803 67 275 7.8 17.4 0.00 0.00 0.00 55 1008.6
20260505053303 67 274 8.7 18.2 0.00 0.00 0.00 55 1008.5
20260505052304 67 274 8.7 17.4 0.00 0.00 0.00 55 1008.5
20260505051303 67 275 9.6 18.2 0.00 0.00 0.00 55 1008.5
20260505050802 67 271 10.4 21.7 0.00 0.00 0.00 54 1008.4
20260505050302 67 298 7.0 17.4 0.00 0.00 0.00 55 1008.4
20260505041302 68 265 7.8 15.6 0.00 0.00 0.00 52 1007.8
20260505040803 68 264 8.7 17.4 0.00 0.00 0.00 51 1007.7
20260505040303 68 267 10.4 19.1 0.00 0.00 0.00 51 1007.6
20260505035802 68 262 7.8 17.4 0.00 0.00 0.00 50 1007.6
20260505035304 68 254 10.4 17.4 0.00 0.00 0.00 50 1007.6
20260505034803 68 264 6.1 17.4 0.00 0.00 0.00 50 1007.5
20260505034303 68 282 8.7 20.9 0.00 0.00 0.00 49 1007.4
20260505033802 69 265 8.7 18.2 0.00 0.00 0.00 49 1007.4
20260505033303 69 295 10.4 21.7 0.00 0.00 0.00 49 1007.3
20260505032802 69 264 7.8 17.4 0.00 0.00 0.00 48 1007.1
20260505032304 69 281 7.8 19.1 0.00 0.00 0.00 48 1007.1
20260505031802 69 247 6.1 15.6 0.00 0.00 0.00 48 1007.0
20260505031303 69 306 5.2 12.2 0.00 0.00 0.00 48 1007.0
20260505030803 69 268 10.4 20.0 0.00 0.00 0.00 47 1006.8
20260505025803 69 309 7.0 17.4 0.00 0.00 0.00 47 1006.6
20260505025304 69 311 6.1 20.0 0.00 0.00 0.00 47 1006.6
20260505024803 70 283 7.8 20.9 0.00 0.00 0.00 47 1006.5
20260505023804 70 308 7.0 20.9 0.00 0.00 0.00 46 1006.4
20260505022304 71 305 7.8 15.6 0.00 0.00 0.00 45 1006.3
20260505020303 71 304 6.1 13.9 0.00 0.00 0.00 45 1006.4
20260505015803 71 299 7.8 17.4 0.00 0.00 0.00 44 1006.4
20260505015304 72 280 6.1 17.4 0.00 0.00 0.00 44 1006.5
20260505014802 72 280 6.1 15.6 0.00 0.00 0.00 44 1006.4
20260505014303 72 279 7.8 19.1 0.00 0.00 0.00 44 1006.3
20260505012803 72 272 7.8 20.0 0.00 0.00 0.00 44 1006.4
20260505012304 72 265 7.0 15.6 0.00 0.00 0.00 43 1006.3
20260505011803 72 286 12.2 20.9 0.00 0.00 0.00 43 1006.4
20260505011303 72 282 10.4 21.7 0.00 0.00 0.00 43 1006.5
20260505010803 72 307 7.8 18.2 0.00 0.00 0.00 43 1006.3
20260505005803 72 293 6.1 20.0 0.00 0.00 0.00 44 1006.5
20260505005303 72 267 12.2 22.6 0.00 0.00 0.00 43 1006.4
20260505004803 72 267 11.3 20.9 0.00 0.00 0.00 43 1006.6
20260505004303 73 299 11.3 19.1 0.00 0.00 0.00 43 1006.6
20260505003803 73 278 10.4 20.0 0.00 0.00 0.00 43 1006.5
20260505002803 73 281 10.4 20.0 0.00 0.00 0.00 42 1006.6
20260505002304 73 288 11.3 25.2 0.00 0.00 0.00 42 1006.6
20260505001802 73 299 10.4 20.0 0.00 0.00 0.00 42 1006.4
20260505001304 73 290 11.3 25.2 0.00 0.00 0.00 42 1006.5
20260505000803 73 287 9.6 21.7 0.00 0.00 0.00 41 1006.5
20260505000302 73 272 14.8 21.7 0.00 0.00 0.00 41 1006.5
20260504235803 74 267 10.4 20.0 0.00 0.00 0.00 40 1006.5
20260504235304 74 267 9.6 17.4 0.00 0.00 0.00 40 1006.6
20260504234803 74 258 9.6 20.9 0.00 0.00 0.00 40 1006.6
20260504234303 74 251 7.8 17.4 0.00 0.00 0.00 39 1006.7
20260504233802 74 290 8.7 20.0 0.00 0.00 0.00 40 1006.5
20260504233304 74 269 10.4 20.9 0.00 0.00 0.00 41 1006.5
20260504232802 74 278 10.4 21.7 0.00 0.00 0.00 40 1006.5
20260504231802 74 262 11.3 21.7 0.00 0.00 0.00 40 1006.5
20260504231303 74 267 10.4 20.9 0.00 0.00 0.00 40 1006.5
20260504230803 74 289 12.2 25.2 0.00 0.00 0.00 41 1006.6
20260504225803 73 266 8.7 24.3 0.00 0.00 0.00 40 1006.7
20260504225304 73 284 13.0 22.6 0.00 0.00 0.00 40 1006.6
20260504224803 73 280 11.3 30.4 0.00 0.00 0.00 40 1006.9
20260504223803 73 269 13.9 20.9 0.00 0.00 0.00 41 1006.8
20260504223303 73 276 12.2 20.0 0.00 0.00 0.00 41 1007.0
20260504222803 73 270 10.4 18.2 0.00 0.00 0.00 41 1007.2
20260504222304 73 273 12.2 24.3 0.00 0.00 0.00 41 1007.1
20260504221303 73 263 9.6 20.0 0.00 0.00 0.00 41 1007.2
20260504220803 73 286 7.8 20.0 0.00 0.00 0.00 41 1007.3
20260504220303 73 288 10.4 22.6 0.00 0.00 0.00 42 1007.2
20260504215803 72 305 6.1 22.6 0.00 0.00 0.00 42 1007.3
20260504215304 72 259 10.4 18.2 0.00 0.00 0.00 42 1007.4
20260504214303 72 285 11.3 19.1 0.00 0.00 0.00 42 1007.4
20260504213303 72 296 6.1 13.0 0.00 0.00 0.00 42 1007.6
20260504212803 71 243 10.4 20.0 0.00 0.00 0.00 43 1007.7
20260504212304 71 272 10.4 24.3 0.00 0.00 0.00 43 1007.8
20260504211802 71 262 10.4 20.0 0.00 0.00 0.00 43 1007.9
20260504211303 71 276 10.4 25.2 0.00 0.00 0.00 43 1007.8
20260504210803 71 268 11.3 20.9 0.00 0.00 0.00 43 1008.0
20260504210303 70 259 11.3 24.3 0.00 0.00 0.00 44 1007.9
20260504205803 70 273 13.9 22.6 0.00 0.00 0.00 44 1007.8
20260504205304 70 285 14.8 21.7 0.00 0.00 0.00 43 1008.0
20260504204803 70 285 12.2 24.3 0.00 0.00 0.00 44 1008.0
20260504204303 70 275 9.6 26.9 0.00 0.00 0.00 44 1008.1
20260504203804 69 293 11.3 26.1 0.00 0.00 0.00 44 1008.2
20260504203304 69 275 13.0 27.8 0.00 0.00 0.00 44 1008.1
20260504202803 69 293 12.2 26.9 0.00 0.00 0.00 45 1008.1
20260504201803 69 281 11.3 26.9 0.00 0.00 0.00 44 1008.2
20260504201303 69 250 13.0 25.2 0.00 0.00 0.00 45 1008.3
20260504200804 69 271 14.8 26.9 0.00 0.00 0.00 45 1008.3
20260504200303 69 258 12.2 22.6 0.00 0.00 0.00 44 1008.3
20260504195304 69 259 8.7 20.9 0.00 0.00 0.00 44 1008.3
20260504193803 69 269 9.6 18.2 0.00 0.00 0.00 44 1008.4
20260504193303 69 275 13.0 25.2 0.00 0.00 0.00 45 1008.4
20260504192803 69 270 13.0 22.6 0.00 0.00 0.00 44 1008.4
20260504192304 68 287 8.7 21.7 0.00 0.00 0.00 45 1008.4
20260504191803 69 281 12.2 22.6 0.00 0.00 0.00 45 1008.5
20260504191303 69 259 13.0 26.9 0.00 0.00 0.00 45 1008.6
20260504190802 68 280 10.4 20.0 0.00 0.00 0.00 44 1008.4
20260504190303 68 261 11.3 21.7 0.00 0.00 0.00 44 1008.6
20260504185803 68 275 9.6 24.3 0.00 0.00 0.00 45 1008.6
20260504185304 68 274 12.2 21.7 0.00 0.00 0.00 46 1008.6
20260504184803 68 284 13.0 24.3 0.00 0.00 0.00 46 1008.6
20260504184303 68 267 11.3 19.1 0.00 0.00 0.00 46 1008.6
20260504183803 67 278 7.8 18.2 0.00 0.00 0.00 46 1008.5
20260504183303 67 290 10.4 20.9 0.00 0.00 0.00 47 1008.6
20260504182803 67 280 8.7 19.1 0.00 0.00 0.00 48 1008.7
20260504182304 67 268 12.2 20.0 0.00 0.00 0.00 48 1008.6
20260504181803 66 276 10.4 19.1 0.00 0.00 0.00 49 1008.6
20260504181304 66 248 10.4 17.4 0.00 0.00 0.00 49 1008.6
20260504180803 66 260 8.7 18.2 0.00 0.00 0.00 49 1008.8
20260504180303 66 274 10.4 20.0 0.00 0.00 0.00 49 1008.9
20260504175803 65 281 11.3 26.1 0.00 0.00 0.00 49 1008.9
20260504175304 65 288 11.3 20.0 0.00 0.00 0.00 49 1008.9
20260504174303 65 271 10.4 20.9 0.00 0.00 0.00 50 1008.9
20260504173803 65 266 10.4 27.8 0.00 0.00 0.00 50 1008.8
20260504173303 65 276 10.4 24.3 0.00 0.00 0.00 50 1008.8
20260504172804 65 291 11.3 24.3 0.00 0.00 0.00 50 1008.8
20260504171303 64 262 7.0 17.4 0.00 0.00 0.00 51 1008.8
20260504170803 64 264 10.4 20.9 0.00 0.00 0.00 51 1008.8
20260504170303 64 276 7.8 18.2 0.00 0.00 0.00 52 1008.8
20260504160303 62 263 11.3 20.9 0.00 0.00 0.00 53 1009.1
20260504150804 62 253 7.0 18.2 0.00 0.00 0.00 53 1008.9
20260504150303 62 231 10.4 22.6 0.00 0.00 0.00 54 1008.9
20260504141303 63 299 12.2 21.7 0.00 0.00 0.00 50 1008.5
20260504140303 63 306 7.8 18.2 0.00 0.00 0.00 52 1008.5
20260504130803 56 114 0.9 2.6 0.00 0.00 0.00 64 1008.1
20260504120304 58 301 4.3 8.7 0.00 0.00 0.00 59 1007.8
20260504100303 59 218 0.9 0.9 0.00 0.00 0.00 57 1007.7
20260504081804 60 156 1.7 2.6 0.00 0.00 0.00 55 1007.7
20260504080303 60 163 2.6 2.6 0.00 0.00 0.00 55 1007.7
20260504070303 62 157 1.7 2.6 0.00 0.00 0.00 52 1007.6